Location: Sungai Lasa
(2.4500°N, 113.4500°E)
Time: 03:16:47
(UTC+00:00)

Cosmos 2322 Rocket - Pass Details

Date: 03 February 2023
Orbit: 831 x 851 km, 71.0° (Epoch: 26 March)

Event Time Altitude Azimuth Distance (km) Brightness Sun altitude
Exits shadow 20:33:51 - 19° (NNE) 2,721 4.8 -30.9°
Reaches altitude 10° 20:34:45 10° 25° (NNE) 2,460 4.7 -30.7°
Maximum altitude 20:39:01 22° 74° (ENE) 1,768 4.4 -29.7°
Drops below altitude 10° 20:43:18 10° 123° (ESE) 2,473 5.5 -28.6°
Sets 20:46:17 0° 138° (SE) 3,412 6.2 -27.9°
